Regional Weather Roundup
Issued by NWS Tiyan, Guam

Home | Current Version | Previous Version | Text Only | Print | Product List | Glossary On
Versions: 1 2 3 4 5 6 7 8 9 10 11 12 13 14 15 16 17 18 19 20 21 22 23 24 25 26 27 28 29 30 31 32 33 34 35 36 37 38 39 40 41 42 43 44 45 46 47 48
000
ASGM40 PGUM 250212
RWRGUM
WEATHER ROUNDUP FOR THE MARIANAS
NATIONAL WEATHER SERVICE TIYAN GU
1200 PM CHST THU DEC 25 2014

GUZ001>004-250300-
MARIANA ISLANDS-

CITY           SKY/WX    TMP DP  RH WIND       PRES   REMARKS
GUAM AIRPORT   MOSUNNY   88  77  70 E17       29.86F HX 100
ANDERSEN AFB   PTSUNNY   81  77  89 E17G23    29.86F
ROTA AIRPORT   PTSUNNY   81  77  89 E16G29    29.89F
TINIAN AP      PTSUNNY   82  77  83 E23       29.87F HX  91
SAIPAN AP      PTSUNNY   84  77  79 E23G29    29.88F HX  94

$$



USA.gov is the U.S. government's official web portal to all federal, state and local government web resources and services.